Location: C.E.K. Mees Observatory
(42.7003°N, 77.4088°W)
Time: 21:01:43
(UTC-04:00)

Vanguard 3 - All Passes

Search period start: 23 June 2018 00:00
Search period end: 03 July 2018 00:00
Orbit: 508 x 3264 km, 33.3° (Epoch: 23 June)

Date Brightness Start Highest point End Pass type
(mag) Time Alt. Az. Time Alt. Az. Time Alt. Az.
23 Jun - 03:19:52 10° SSW 03:23:45 24° SSE 03:29:20 10° ESE visible
23 Jun - 05:29:00 10° WSW 05:34:52 43° S 05:44:56 10° ESE daylight
23 Jun - 07:39:37 10° WSW 07:47:26 39° SSW 08:00:16 10° SE daylight
23 Jun - 09:52:31 10° WSW 10:00:58 22° SSW 10:12:23 10° SSE daylight
24 Jun - 02:09:05 10° SSE 02:10:46 12° SE 02:12:40 10° ESE visible
24 Jun - 04:16:28 10° SW 04:21:11 35° SSE 04:28:44 10° ESE visible
24 Jun - 06:26:28 10° WSW 06:32:59 41° S 06:44:03 10° ESE daylight
24 Jun - 08:37:58 10° WSW 08:45:57 28° SSW 08:57:54 10° SSE daylight
24 Jun - 10:55:46 10° SW 10:59:38 11° SW 11:03:54 10° SSW daylight
25 Jun - 03:04:17 10° SSW 03:07:54 24° SSE 03:12:55 10° ESE visible
25 Jun - 05:13:38 10° WSW 05:18:58 40° S 05:27:52 10° ESE daylight
25 Jun - 07:24:18 10° WSW 07:31:16 33° SSW 07:42:29 10° SE daylight
25 Jun - 09:37:49 10° WSW 09:44:34 17° SSW 09:53:17 10° S daylight
26 Jun - 01:53:04 10° S 01:54:52 12° SSE 01:56:54 10° SE visible
26 Jun - 04:01:03 10° SW 04:05:22 33° S 04:12:03 10° ESE visible
26 Jun - 06:11:08 10° WSW 06:17:00 36° S 06:26:41 10° SE daylight
26 Jun - 08:22:54 10° WSW 08:29:44 23° SSW 08:39:32 10° SSE daylight
27 Jun - 02:48:44 10° SW 02:52:06 23° SSE 02:56:36 10° ESE visible
27 Jun - 04:58:18 10° WSW 05:03:08 36° S 05:10:54 10° ESE visible
27 Jun - 07:09:07 10° WSW 07:15:14 27° SSW 07:24:39 10° SE daylight
27 Jun - 09:24:02 10° SW 09:28:17 13° SSW 09:33:19 10° S daylight
28 Jun - 01:37:06 10° S 01:39:02 13° SSE 01:41:10 10° SE visible
28 Jun - 03:45:39 10° SW 03:49:37 31° S 03:55:27 10° ESE visible
28 Jun - 05:55:54 10° WSW 06:01:07 30° S 06:09:19 10° SE daylight
28 Jun - 08:08:13 10° WSW 08:13:38 17° SSW 08:20:53 10° SSE daylight
29 Jun - 02:33:12 10° SW 02:36:22 23° SSE 02:40:24 10° ESE visible
29 Jun - 04:43:00 10° WSW 04:47:22 31° S 04:54:00 10° SE visible
29 Jun - 06:54:08 10° WSW 06:59:17 22° SSW 07:06:43 10° SSE daylight
30 Jun - 01:21:08 10° SSW 01:23:15 14° SSE 01:25:32 10° SE visible
30 Jun - 03:30:17 10° SW 03:33:55 28° S 03:38:57 10° ESE visible
30 Jun - 05:40:46 10° WSW 05:45:18 24° S 05:51:59 10° SE daylight
30 Jun - 07:54:21 10° SW 07:57:37 12° SSW 08:01:30 10° S daylight
01 Jul - 02:17:40 10° SW 02:20:40 22° S 02:24:18 10° ESE visible
01 Jul - 04:27:46 10° WSW 04:31:38 26° S 04:37:10 10° SE visible
01 Jul - 06:39:29 10° SW 06:43:25 16° SSW 06:48:35 10° SSE daylight
02 Jul - 01:05:11 10° SSW 01:07:31 16° SSE 01:09:56 10° SE night (unlit)
02 Jul - 03:14:56 10° SW 03:18:14 25° S 03:22:33 10° SE visible
02 Jul - 05:25:49 10° WSW 05:29:32 19° SSW 05:34:35 10° SSE daylight
02 Jul - 23:53:27 10° S 23:54:18 11° SSE 23:55:07 10° SSE night (unlit)
